TimeEDT,TemperatureF,Dew PointF,Humidity,Sea Level PressureIn,VisibilityMPH,Wind Direction,Wind SpeedMPH,Gust SpeedMPH,PrecipitationIn,Events,Conditions,WindDirDegrees,DateUTC
12:51 AM,75.0,64.9,71,30.09,10.0,Calm,Calm,-,N/A,,Scattered Clouds,0,2013-06-23 04:51:00
1:51 AM,72.0,66.0,81,30.08,10.0,Calm,Calm,-,N/A,,Partly Cloudy,0,2013-06-23 05:51:00
2:51 AM,71.1,64.9,81,30.07,9.0,Calm,Calm,-,N/A,,Partly Cloudy,0,2013-06-23 06:51:00
3:51 AM,70.0,64.9,84,30.07,9.0,Calm,Calm,-,N/A,,Clear,0,2013-06-23 07:51:00
4:51 AM,68.0,64.9,90,30.08,7.0,ESE,3.5,-,N/A,,Clear,110,2013-06-23 08:51:00
5:51 AM,66.9,64.9,93,30.10,7.0,ESE,3.5,-,N/A,,Partly Cloudy,120,2013-06-23 09:51:00
6:51 AM,70.0,64.9,84,30.12,7.0,Calm,Calm,-,N/A,,Partly Cloudy,0,2013-06-23 10:51:00
7:51 AM,73.0,66.9,81,30.13,7.0,Calm,Calm,-,N/A,,Partly Cloudy,0,2013-06-23 11:51:00
8:51 AM,75.9,68.0,76,30.14,7.0,South,3.5,-,N/A,,Partly Cloudy,180,2013-06-23 12:51:00
9:51 AM,81.0,68.0,65,30.13,10.0,SSW,3.5,-,N/A,,Partly Cloudy,200,2013-06-23 13:51:00
10:51 AM,84.0,68.0,58,30.13,10.0,WNW,4.6,-,N/A,,Scattered Clouds,290,2013-06-23 14:51:00
11:51 AM,84.9,66.0,53,30.11,10.0,SW,8.1,16.1,N/A,,Scattered Clouds,220,2013-06-23 15:51:00
12:51 PM,88.0,66.0,48,30.10,10.0,South,13.8,20.7,N/A,,Scattered Clouds,190,2013-06-23 16:51:00
1:51 PM,87.1,64.9,48,30.08,10.0,SSW,10.4,19.6,N/A,,Mostly Cloudy,210,2013-06-23 17:51:00
2:51 PM,88.0,66.0,48,30.08,10.0,South,10.4,-,N/A,,Mostly Cloudy,190,2013-06-23 18:51:00
3:51 PM,89.1,64.9,45,30.06,10.0,SSW,15.0,-,N/A,,Mostly Cloudy,210,2013-06-23 19:51:00
4:51 PM,89.1,66.0,46,30.05,10.0,SSW,13.8,-,N/A,,Mostly Cloudy,200,2013-06-23 20:51:00
5:51 PM,87.1,64.9,48,30.04,10.0,SSW,12.7,21.9,N/A,,Scattered Clouds,200,2013-06-23 21:51:00
6:51 PM,87.1,64.9,48,30.03,10.0,SSW,11.5,-,N/A,,Scattered Clouds,200,2013-06-23 22:51:00
7:51 PM,84.9,66.0,53,30.04,10.0,South,11.5,-,N/A,,Scattered Clouds,180,2013-06-23 23:51:00
8:51 PM,82.9,62.1,49,30.06,10.0,West,15.0,-,N/A,,Mostly Cloudy,260,2013-06-24 00:51:00
9:04 PM,82.4,62.6,51,30.08,10.0,WNW,10.4,-,N/A,,Mostly Cloudy,290,2013-06-24 01:04:00
9:51 PM,79.0,60.1,52,30.09,10.0,NW,6.9,-,N/A,,Mostly Cloudy,310,2013-06-24 01:51:00
10:51 PM,78.1,61.0,56,30.09,10.0,NNW,3.5,-,N/A,,Overcast,340,2013-06-24 02:51:00
11:51 PM,75.9,62.1,62,30.10,10.0,Calm,Calm,-,N/A,,Mostly Cloudy,0,2013-06-24 03:51:00